Flag for Canada Weather past 2 weeks in Laval, Quebec, Canada

Now
43 °F

Passing clouds.


Feels Like: 37 °F
Forecast: 35 / 55 °F
Wind: 10 mph from East

Location: Montreal / Mirabel

Current Time: Apr 19, 2015 at 10:43:19 AM

Latest Report: Apr 19, 2015 at 10:00 AM


Visibility: 45 mi

Pressure: 30.37 "Hg

Humidity: 42%

Dew point: 21 °F

Location of LavalLocation

Historic Weather in Laval — Graph

°F

Laval temperature yesterday

Maximum temperature yesterday: 50 °F (at 5:00 PM)
Minimum temperature yesterday: 34 °F (at 6:00 AM)
Average temperature yesterday: 42 °F

Past Weeks' High & Low Weather Summary

 TemperatureHumidityPressure
High72 °F (Apr 13, 3:00 PM)100% (Apr 7, 1:00 AM)30.52 "Hg (Apr 7, 1:00 AM)
Low14 °F (Apr 6, 6:00 AM)12% (Apr 15, 3:00 PM)29.43 "Hg (Apr 10, 6:00 PM)
Average41 °F55%30.11 "Hg
* Reported Apr 4 9:00 AM — Apr 19 9:00 AM, Laval, Weather by CustomWeather, © 2015

Note: Actual official high and low records may vary slightly from our data, if they occured in-between our weather recording intervals... More about our weather records

Advertising

Laval weather history for previous 24 hours

 ConditionsComfort  
Time TempWeatherWind HumidityBarometerVisibility
9:00 AM
Sun, Apr 19
41 °FPassing clouds.8 mph49%30.35 "Hg45 mi
8:00 AM37 °FPassing clouds.5 mph60%30.36 "Hg45 mi
7:00 AM32 °FPassing clouds.2 mph75%30.34 "Hg45 mi
6:00 AM30 °FPassing clouds.3 mph75%30.32 "Hg45 mi
5:00 AM36 °FClear.7 mph65%30.30 "Hg25 mi
4:00 AM36 °FClear.6 mph65%30.29 "Hg25 mi
3:00 AM36 °FClear.5 mph65%30.28 "Hg25 mi
2:00 AM36 °FClear.9 mph70%30.27 "Hg25 mi
1:00 AM37 °FPassing clouds.6 mph70%30.26 "Hg25 mi
12:00 AM39 °FPassing clouds.3 mph65%30.23 "Hg25 mi
11:00 PM
Sat, Apr 18
39 °FClear.5 mph65%30.22 "Hg25 mi
10:00 PM43 °FPassing clouds.10 mph57%30.19 "Hg25 mi
9:00 PM43 °FPassing clouds.8 mph57%30.17 "Hg25 mi
8:00 PM45 °FScattered clouds.10 mph57%30.13 "Hg25 mi
7:00 PM46 °FBroken clouds.13 mph57%30.09 "Hg25 mi
6:00 PM48 °FScattered showers. Broken clouds.12 mph54%30.03 "Hg45 mi
5:00 PM50 °FScattered showers. Broken clouds.10 mph54%30.01 "Hg45 mi
4:00 PM46 °FPartly sunny.3 mph66%29.98 "Hg45 mi
3:00 PM45 °FPartly sunny.5 mph71%29.98 "Hg25 mi
2:00 PM43 °FPartly sunny.7 mph71%29.96 "Hg45 mi
1:00 PM41 °FMostly cloudy.6 mph70%29.93 "Hg25 mi
12:00 PM41 °FSprinkles. More clouds than sun.7 mph66%29.95 "Hg25 mi
11:00 AM45 °FScattered showers. Cloudy.8 mph46%29.93 "Hg45 mi
10:00 AM45 °FBroken clouds.9 mph49%29.94 "Hg45 mi
Weather by CustomWeather, © 2015

See weather overviewHow to use our weather pages